Location: Burera
(21.3780°N, 81.9534°E)
Time: 00:23:27
(UTC+00:00)

Cosmos 883 Rocket - Pass Details

Date: 13 August 2020
Orbit: 950 x 995 km, 83.0° (Epoch: 22 September)

Event Time Altitude Azimuth Distance (km) Brightness Sun altitude
Exits shadow 22:24:23 45° 210° (SSW) 1,294 4.7 -23.8°
Maximum altitude 22:26:17 68° 275° (W) 1,041 4.4 -23.4°
Drops below altitude 10° 22:32:30 10° 358° (N) 2,731 7.1 -22.1°
Sets 22:35:03 0° 1° (N) 3,687 7.9 -21.6°
